Location: Newark
(13.8117°N, 3.6025°W)
Time: 07:59:28
(UTC+00:00)

Explorer 11/Cluster Stage 4 - Pass Details

Date: 30 August 2019
Orbit: 467 x 1260 km, 28.8° (Epoch: 19 September)

Event Time Altitude Azimuth Distance (km) Brightness Sun altitude
Rises 08:14:48 0° 284° (WNW) 3,449 9.4 31.0°
Reaches altitude 10° 08:17:37 10° 297° (WNW) 2,645 8.9 31.7°
Maximum altitude 08:23:02 27° 353° (N) 1,915 8.7 33.0°
Drops below altitude 10° 08:29:17 10° 47° (NE) 3,077 10.4 34.6°
Sets 08:32:51 0° 59° (ENE) 4,123 11.0 35.4°
